Volver al catálogo

SL-12 R/B(2)

ActivoGEO
NORAD 12471·ROCKET BODY·🇷🇺 Russia

Lanzado Dec 26, 1980 desde Baikonur Cosmodrome

Loading…

TLE

ActualizadoSource: Space-Track

Época: Sep 14, 2026, 11:46 UTC

1 12471U 80104E   26257.49050610 -.00000253  00000-0  00000-0 0  9996
2 12471   5.2857 286.2025 0031315 202.1272 334.1496  1.01342831120868

Sigue SL-12 R/B(2) en tiempo real con AllMySat

Download on the App Store